Time,TemperatureF,DewpointF,PressureIn,WindDirection,WindDirectionDegrees,WindSpeedMPH,WindSpeedGustMPH,Humidity,HourlyPrecipIn,Conditions,Clouds,dailyrainin,SoftwareType,DateUTC
2013-01-06 00:02:00,33.3,28.9,30.07,SW,225,1.8,2.0,84,0.00,,,0.00,WUHU216HW,2013-01-06 06:02:00,
2013-01-06 00:07:00,33.1,28.8,30.07,WSW,248,3.4,3.4,84,0.00,,,0.00,WUHU216HW,2013-01-06 06:07:00,
2013-01-06 00:12:00,33.1,28.8,30.07,SW,225,1.1,3.4,84,0.00,,,0.00,WUHU216HW,2013-01-06 06:12:00,
2013-01-06 00:17:00,33.1,28.8,30.07,WSW,248,2.2,2.2,84,0.00,,,0.00,WUHU216HW,2013-01-06 06:17:00,
2013-01-06 00:22:00,33.1,29.1,30.07,SW,225,2.9,2.9,85,0.00,,,0.00,WUHU216HW,2013-01-06 06:22:00,
2013-01-06 00:27:00,33.1,29.1,30.07,SW,218,0.6,2.9,85,0.00,,,0.00,WUHU216HW,2013-01-06 06:27:00,
2013-01-06 00:32:00,33.1,29.3,30.07,WSW,248,0.8,1.8,86,0.00,,,0.00,WUHU216HW,2013-01-06 06:32:00,
2013-01-06 00:37:00,33.3,29.3,30.07,SW,225,2.1,3.1,85,0.00,,,0.00,WUHU216HW,2013-01-06 06:37:00,
2013-01-06 00:42:00,33.3,29.3,30.07,SSW,203,1.8,3.1,85,0.00,,,0.00,WUHU216HW,2013-01-06 06:42:00,
2013-01-06 00:47:00,33.5,29.3,30.07,WSW,240,1.3,2.7,85,0.00,,,0.00,WUHU216HW,2013-01-06 06:47:00,
2013-01-06 00:53:00,33.5,29.3,30.07,West,270,1.3,1.8,85,0.00,,,0.00,WUHU216HW,2013-01-06 06:53:00,
2013-01-06 00:58:00,33.5,29.1,30.07,SW,229,1.1,1.6,84,0.00,,,0.00,WUHU216HW,2013-01-06 06:58:00,
2013-01-06 01:02:00,33.5,29.3,30.07,WSW,248,1.1,1.6,85,0.00,,,0.00,WUHU216HW,2013-01-06 07:02:00,
2013-01-06 01:07:00,33.5,29.1,30.07,SW,225,0.9,3.4,84,0.00,,,0.00,WUHU216HW,2013-01-06 07:07:00,
2013-01-06 01:12:00,33.3,28.9,30.07,SW,225,1.3,3.4,84,0.00,,,0.00,WUHU216HW,2013-01-06 07:12:00,
2013-01-06 01:17:00,33.1,29.1,30.07,SW,225,0.9,1.8,85,0.00,,,0.00,WUHU216HW,2013-01-06 07:17:00,
2013-01-06 01:22:00,33.3,29.3,30.07,West,270,1.1,1.8,85,0.00,,,0.00,WUHU216HW,2013-01-06 07:22:00,
2013-01-06 01:28:00,33.1,29.1,30.07,West,270,2.0,2.0,85,0.00,,,0.00,WUHU216HW,2013-01-06 07:28:00,
2013-01-06 01:32:00,33.3,29.3,30.07,West,262,0.6,3.4,85,0.00,,,0.00,WUHU216HW,2013-01-06 07:32:00,
2013-01-06 01:37:00,33.1,29.1,30.07,NW,315,2.2,3.4,85,0.00,,,0.00,WUHU216HW,2013-01-06 07:37:00,
2013-01-06 01:43:00,33.1,28.8,30.07,South,180,2.9,2.9,84,0.00,,,0.00,WUHU216HW,2013-01-06 07:43:00,
2013-01-06 01:48:00,33.1,28.8,30.07,SW,225,0.7,2.9,84,0.00,,,0.00,WUHU216HW,2013-01-06 07:48:00,
2013-01-06 01:53:00,33.1,28.8,30.08,WSW,248,1.1,2.7,84,0.00,,,0.00,WUHU216HW,2013-01-06 07:53:00,
2013-01-06 01:58:00,32.9,28.6,30.08,WSW,248,1.0,2.7,84,0.00,,,0.00,WUHU216HW,2013-01-06 07:58:00,
2013-01-06 02:03:00,32.8,28.4,30.08,West,270,2.0,2.0,84,0.00,,,0.00,WUHU216HW,2013-01-06 08:03:00,
2013-01-06 02:08:00,32.4,28.1,30.08,West,260,0.4,2.0,84,0.00,,,0.00,WUHU216HW,2013-01-06 08:08:00,
2013-01-06 02:13:00,32.2,28.3,30.08,West,262,1.1,1.8,85,0.00,,,0.00,WUHU216HW,2013-01-06 08:13:00,
2013-01-06 02:18:00,32.0,28.1,30.08,WSW,253,0.9,2.0,85,0.00,,,0.00,WUHU216HW,2013-01-06 08:18:00,
2013-01-06 02:23:00,32.0,28.1,30.08,SW,225,0.9,2.0,85,0.00,,,0.00,WUHU216HW,2013-01-06 08:23:00,
2013-01-06 02:28:00,31.9,27.9,30.09,WSW,248,0.6,1.6,85,0.00,,,0.00,WUHU216HW,2013-01-06 08:28:00,
2013-01-06 02:32:00,31.9,27.9,30.09,WSW,248,0.3,1.8,85,0.00,,,0.00,WUHU216HW,2013-01-06 08:32:00,
2013-01-06 02:38:00,31.5,27.5,30.09,WSW,248,0.4,1.8,85,0.00,,,0.00,WUHU216HW,2013-01-06 08:38:00,
2013-01-06 02:43:00,31.3,27.6,30.09,SW,225,0.8,1.1,86,0.00,,,0.00,WUHU216HW,2013-01-06 08:43:00,
2013-01-06 02:48:00,31.3,27.4,30.09,SW,225,1.4,1.6,85,0.00,,,0.00,WUHU216HW,2013-01-06 08:48:00,
2013-01-06 02:53:00,31.1,27.2,30.09,SW,225,1.0,1.6,85,0.00,,,0.00,WUHU216HW,2013-01-06 08:53:00,
2013-01-06 02:57:00,31.0,27.0,30.09,SW,225,1.0,1.3,85,0.00,,,0.00,WUHU216HW,2013-01-06 08:57:00,
2013-01-06 03:02:00,31.0,27.0,30.09,SW,225,0.2,1.8,85,0.00,,,0.00,WUHU216HW,2013-01-06 09:02:00,
2013-01-06 03:07:00,30.6,26.6,30.09,SW,225,0.2,1.8,85,0.00,,,0.00,WUHU216HW,2013-01-06 09:07:00,
2013-01-06 03:12:00,30.4,26.5,30.09,WSW,248,0.4,1.1,85,0.00,,,0.00,WUHU216HW,2013-01-06 09:12:00,
2013-01-06 03:17:00,30.2,26.0,30.09,SW,225,0.2,1.1,84,0.00,,,0.00,WUHU216HW,2013-01-06 09:17:00,
2013-01-06 03:23:00,30.2,26.3,30.09,SW,225,1.0,1.1,85,0.00,,,0.00,WUHU216HW,2013-01-06 09:23:00,
2013-01-06 03:28:00,30.1,26.1,30.09,SW,225,0.1,1.8,85,0.00,,,0.00,WUHU216HW,2013-01-06 09:28:00,
2013-01-06 03:33:00,29.9,25.9,30.09,SW,225,1.1,1.8,85,0.00,,,0.00,WUHU216HW,2013-01-06 09:33:00,
2013-01-06 03:38:00,29.9,26.2,30.09,WSW,248,0.7,1.1,86,0.00,,,0.00,WUHU216HW,2013-01-06 09:38:00,
2013-01-06 03:43:00,29.9,25.9,30.09,West,270,0.9,1.6,85,0.00,,,0.00,WUHU216HW,2013-01-06 09:43:00,
2013-01-06 03:48:00,29.7,26.0,30.09,SW,228,0.7,1.6,86,0.00,,,0.00,WUHU216HW,2013-01-06 09:48:00,
2013-01-06 03:53:00,29.5,25.8,30.09,SW,225,0.4,1.3,86,0.00,,,0.00,WUHU216HW,2013-01-06 09:53:00,
2013-01-06 03:58:00,29.5,25.8,30.09,SSW,203,0.1,1.1,86,0.00,,,0.00,WUHU216HW,2013-01-06 09:58:00,
2013-01-06 04:03:00,29.5,25.8,30.09,WSW,258,0.8,1.1,86,0.00,,,0.00,WUHU216HW,2013-01-06 10:03:00,
2013-01-06 04:08:00,29.3,25.7,30.09,WSW,248,0.4,1.1,86,0.00,,,0.00,WUHU216HW,2013-01-06 10:08:00,
2013-01-06 04:13:00,29.3,25.7,30.09,WSW,248,0.2,0.7,86,0.00,,,0.00,WUHU216HW,2013-01-06 10:13:00,
2013-01-06 04:18:00,29.3,25.7,30.09,West,270,0.6,1.8,86,0.00,,,0.00,WUHU216HW,2013-01-06 10:18:00,
2013-01-06 04:23:00,29.5,25.8,30.09,West,270,4.0,4.0,86,0.00,,,0.00,WUHU216HW,2013-01-06 10:23:00,
2013-01-06 04:28:00,29.5,25.6,30.09,West,278,0.6,4.0,85,0.00,,,0.00,WUHU216HW,2013-01-06 10:28:00,
2013-01-06 04:33:00,29.3,25.4,30.09,SW,225,1.1,1.8,85,0.00,,,0.00,WUHU216HW,2013-01-06 10:33:00,
2013-01-06 04:38:00,29.2,25.2,30.09,SW,225,1.1,1.1,85,0.00,,,0.00,WUHU216HW,2013-01-06 10:38:00,
2013-01-06 04:43:00,29.2,25.2,30.09,WSW,248,0.2,1.1,85,0.00,,,0.00,WUHU216HW,2013-01-06 10:43:00,
2013-01-06 04:48:00,29.2,25.2,30.09,SSW,203,0.4,1.3,85,0.00,,,0.00,WUHU216HW,2013-01-06 10:48:00,
2013-01-06 04:53:00,28.8,24.8,30.09,West,270,0.2,1.3,85,0.00,,,0.00,WUHU216HW,2013-01-06 10:53:00,
2013-01-06 04:58:00,28.6,24.7,30.09,SW,225,0.4,0.7,85,0.00,,,0.00,WUHU216HW,2013-01-06 10:58:00,
2013-01-06 05:03:00,28.4,24.5,30.09,West,270,0.3,0.7,85,0.00,,,0.00,WUHU216HW,2013-01-06 11:03:00,
2013-01-06 05:08:00,28.4,24.5,30.10,WNW,293,0.4,1.8,85,0.00,,,0.00,WUHU216HW,2013-01-06 11:08:00,
2013-01-06 05:13:00,28.4,24.5,30.10,WNW,285,1.0,1.8,85,0.00,,,0.00,WUHU216HW,2013-01-06 11:13:00,
2013-01-06 05:18:00,28.4,24.5,30.10,WNW,294,0.3,2.0,85,0.00,,,0.00,WUHU216HW,2013-01-06 11:18:00,
2013-01-06 05:23:00,28.4,24.5,30.10,West,270,0.6,2.0,85,0.00,,,0.00,WUHU216HW,2013-01-06 11:23:00,
2013-01-06 05:28:00,28.3,24.3,30.10,West,270,0.9,0.9,85,0.00,,,0.00,WUHU216HW,2013-01-06 11:28:00,
2013-01-06 05:33:00,28.1,23.9,30.11,NW,315,1.1,1.1,84,0.00,,,0.00,WUHU216HW,2013-01-06 11:33:00,
2013-01-06 05:38:00,28.1,23.9,30.11,West,270,0.1,1.1,84,0.00,,,0.00,WUHU216HW,2013-01-06 11:38:00,
2013-01-06 05:42:00,27.9,23.7,30.11,NW,315,0.3,1.1,84,0.00,,,0.00,WUHU216HW,2013-01-06 11:42:00,
2013-01-06 05:48:00,27.9,23.4,30.11,NW,315,0.9,0.9,83,0.00,,,0.00,WUHU216HW,2013-01-06 11:48:00,
2013-01-06 05:53:00,27.7,23.5,30.11,West,264,0.8,2.5,84,0.00,,,0.00,WUHU216HW,2013-01-06 11:53:00,
2013-01-06 05:57:00,27.7,23.2,30.11,WNW,288,1.0,2.5,83,0.00,,,0.00,WUHU216HW,2013-01-06 11:57:00,
2013-01-06 06:02:00,27.7,23.2,30.11,West,269,0.3,2.5,83,0.00,,,0.00,WUHU216HW,2013-01-06 12:02:00,
2013-01-06 06:08:00,27.5,23.1,30.12,NW,315,1.1,2.5,83,0.00,,,0.00,WUHU216HW,2013-01-06 12:08:00,
2013-01-06 06:13:00,27.4,22.9,30.12,West,270,0.2,1.1,83,0.00,,,0.00,WUHU216HW,2013-01-06 12:13:00,
2013-01-06 06:18:00,27.4,22.9,30.12,NW,315,0.0,0.4,83,0.00,,,0.00,WUHU216HW,2013-01-06 12:18:00,
2013-01-06 06:23:00,27.2,22.7,30.12,West,270,0.4,0.4,83,0.00,,,0.00,WUHU216HW,2013-01-06 12:23:00,
2013-01-06 06:28:00,27.0,22.5,30.12,WNW,298,0.8,1.1,83,0.00,,,0.00,WUHU216HW,2013-01-06 12:28:00,
2013-01-06 06:33:00,26.8,22.6,30.13,NW,315,0.7,1.1,84,0.00,,,0.00,WUHU216HW,2013-01-06 12:33:00,
2013-01-06 06:38:00,26.8,22.6,30.13,NW,307,0.6,1.8,84,0.00,,,0.00,WUHU216HW,2013-01-06 12:38:00,
2013-01-06 06:43:00,26.8,22.6,30.14,NW,315,1.1,1.8,84,0.00,,,0.00,WUHU216HW,2013-01-06 12:43:00,
2013-01-06 06:48:00,26.8,22.6,30.14,NNW,338,1.8,2.0,84,0.00,,,0.00,WUHU216HW,2013-01-06 12:48:00,
2013-01-06 06:53:00,26.8,22.3,30.14,NNW,330,1.1,1.8,83,0.00,,,0.00,WUHU216HW,2013-01-06 12:53:00,
2013-01-06 06:58:00,26.6,22.4,30.14,NNW,338,0.9,2.0,84,0.00,,,0.00,WUHU216HW,2013-01-06 12:58:00,
2013-01-06 07:03:00,26.6,22.2,30.15,NW,315,1.8,2.0,83,0.00,,,0.00,WUHU216HW,2013-01-06 13:03:00,
2013-01-06 07:08:00,26.6,22.2,30.15,WNW,293,1.8,2.5,83,0.00,,,0.00,WUHU216HW,2013-01-06 13:08:00,
2013-01-06 07:13:00,26.6,22.2,30.15,WNW,293,3.4,3.4,83,0.00,,,0.00,WUHU216HW,2013-01-06 13:13:00,
2013-01-06 07:18:00,26.6,22.4,30.15,WNW,300,1.9,3.4,84,0.00,,,0.00,WUHU216HW,2013-01-06 13:18:00,
2013-01-06 07:23:00,26.6,22.4,30.16,NW,315,2.5,2.9,84,0.00,,,0.00,WUHU216HW,2013-01-06 13:23:00,
2013-01-06 07:28:00,26.6,22.4,30.16,NNE,23,1.6,2.7,84,0.00,,,0.00,WUHU216HW,2013-01-06 13:28:00,
2013-01-06 07:33:00,26.6,22.4,30.16,NNW,338,1.8,2.7,84,0.00,,,0.00,WUHU216HW,2013-01-06 13:33:00,
2013-01-06 07:38:00,26.6,22.2,30.16,North,353,1.1,2.2,83,0.00,,,0.00,WUHU216HW,2013-01-06 13:38:00,
2013-01-06 07:43:00,26.6,22.4,30.16,NW,315,2.2,3.4,84,0.00,,,0.00,WUHU216HW,2013-01-06 13:43:00,
2013-01-06 07:48:00,26.6,22.4,30.16,West,270,1.3,3.4,84,0.00,,,0.00,WUHU216HW,2013-01-06 13:48:00,
2013-01-06 07:53:00,26.6,22.4,30.17,NW,310,0.9,2.9,84,0.00,,,0.00,WUHU216HW,2013-01-06 13:53:00,
2013-01-06 07:58:00,26.6,22.4,30.17,WNW,293,1.3,2.9,84,0.00,,,0.00,WUHU216HW,2013-01-06 13:58:00,
2013-01-06 08:03:00,26.6,22.4,30.17,NW,315,2.0,2.5,84,0.00,,,0.00,WUHU216HW,2013-01-06 14:03:00,
2013-01-06 08:08:00,26.6,22.4,30.17,NW,322,0.6,2.5,84,0.00,,,0.00,WUHU216HW,2013-01-06 14:08:00,
2013-01-06 08:13:00,26.6,22.4,30.17,NW,312,1.5,2.5,84,0.00,,,0.00,WUHU216HW,2013-01-06 14:13:00,
2013-01-06 08:18:00,26.8,22.6,30.17,WNW,300,2.3,4.0,84,0.00,,,0.00,WUHU216HW,2013-01-06 14:18:00,
2013-01-06 08:23:00,27.0,22.8,30.17,NNW,338,3.1,4.0,84,0.00,,,0.00,WUHU216HW,2013-01-06 14:23:00,
2013-01-06 08:28:00,27.4,22.9,30.17,NW,315,1.8,3.8,83,0.00,,,0.00,WUHU216HW,2013-01-06 14:28:00,
2013-01-06 08:33:00,27.9,23.4,30.17,NNW,338,0.9,2.5,83,0.00,,,0.00,WUHU216HW,2013-01-06 14:33:00,
2013-01-06 08:38:00,28.3,23.8,30.18,NW,319,1.4,2.5,83,0.00,,,0.00,WUHU216HW,2013-01-06 14:38:00,
2013-01-06 08:43:00,28.3,23.4,30.18,WNW,299,3.2,4.5,82,0.00,,,0.00,WUHU216HW,2013-01-06 14:43:00,
2013-01-06 08:48:00,28.4,23.6,30.18,NW,315,1.1,4.5,82,0.00,,,0.00,WUHU216HW,2013-01-06 14:48:00,
2013-01-06 08:53:00,28.8,23.7,30.18,NW,315,2.0,3.4,81,0.00,,,0.00,WUHU216HW,2013-01-06 14:53:00,
2013-01-06 08:58:00,29.0,23.6,30.19,WNW,293,1.3,4.0,80,0.00,,,0.00,WUHU216HW,2013-01-06 14:58:00,
2013-01-06 09:03:00,29.2,23.8,30.19,NNW,338,4.2,4.3,80,0.00,,,0.00,WUHU216HW,2013-01-06 15:03:00,
2013-01-06 09:08:00,29.2,23.8,30.19,WNW,300,3.6,4.7,80,0.00,,,0.00,WUHU216HW,2013-01-06 15:08:00,
2013-01-06 09:13:00,29.3,23.9,30.19,NW,310,3.2,5.4,80,0.00,,,0.00,WUHU216HW,2013-01-06 15:13:00,
2013-01-06 09:18:00,29.5,24.1,30.19,NW,315,2.9,5.4,80,0.00,,,0.00,WUHU216HW,2013-01-06 15:18:00,
2013-01-06 09:23:00,29.9,24.1,30.19,NW,315,3.1,4.3,79,0.00,,,0.00,WUHU216HW,2013-01-06 15:23:00,
2013-01-06 09:28:00,30.2,24.2,30.19,NNW,338,7.4,7.4,78,0.00,,,0.00,WUHU216HW,2013-01-06 15:28:00,
2013-01-06 09:33:00,30.6,24.2,30.19,NNE,23,11.6,11.6,77,0.00,,,0.00,WUHU216HW,2013-01-06 15:33:00,
2013-01-06 09:38:00,31.1,24.8,30.19,WNW,293,4.0,11.6,77,0.00,,,0.00,WUHU216HW,2013-01-06 15:38:00,
2013-01-06 09:43:00,31.9,24.8,30.19,NW,309,3.9,4.9,75,0.00,,,0.00,WUHU216HW,2013-01-06 15:43:00,
2013-01-06 09:48:00,32.2,25.5,30.19,North,0,2.0,4.9,76,0.00,,,0.00,WUHU216HW,2013-01-06 15:48:00,
2013-01-06 09:53:00,32.8,25.4,30.19,North,0,2.0,4.3,74,0.00,,,0.00,WUHU216HW,2013-01-06 15:53:00,
2013-01-06 09:58:00,32.8,25.0,30.20,North,350,4.9,5.4,73,0.00,,,0.00,WUHU216HW,2013-01-06 15:58:00,
2013-01-06 10:03:00,33.1,25.4,30.20,NW,315,4.9,5.4,73,0.00,,,0.00,WUHU216HW,2013-01-06 16:03:00,
2013-01-06 10:08:00,32.8,25.0,30.21,WNW,293,3.6,4.9,73,0.00,,,0.00,WUHU216HW,2013-01-06 16:08:00,
2013-01-06 10:13:00,33.1,25.0,30.21,WNW,303,5.3,6.3,72,0.00,,,0.00,WUHU216HW,2013-01-06 16:13:00,
2013-01-06 10:18:00,32.8,25.0,30.20,North,10,5.3,6.3,73,0.00,,,0.00,WUHU216HW,2013-01-06 16:18:00,
2013-01-06 10:23:00,32.8,25.4,30.21,WSW,248,2.7,6.0,74,0.00,,,0.00,WUHU216HW,2013-01-06 16:23:00,
2013-01-06 10:28:00,33.1,25.7,30.21,NW,315,6.3,6.3,74,0.00,,,0.00,WUHU216HW,2013-01-06 16:28:00,
2013-01-06 10:33:00,33.1,25.0,30.21,West,270,3.7,6.3,72,0.00,,,0.00,WUHU216HW,2013-01-06 16:33:00,
2013-01-06 10:38:00,33.1,25.4,30.21,North,0,4.0,4.5,73,0.00,,,0.00,WUHU216HW,2013-01-06 16:38:00,
2013-01-06 10:43:00,33.5,25.7,30.21,NE,45,3.1,4.0,73,0.00,,,0.00,WUHU216HW,2013-01-06 16:43:00,
2013-01-06 10:48:00,33.7,25.5,30.21,NW,326,2.3,4.7,72,0.00,,,0.00,WUHU216HW,2013-01-06 16:48:00,
2013-01-06 10:53:00,33.7,25.2,30.21,West,270,3.2,4.7,71,0.00,,,0.00,WUHU216HW,2013-01-06 16:53:00,
2013-01-06 10:58:00,34.0,25.8,30.21,North,0,4.7,5.4,72,0.00,,,0.00,WUHU216HW,2013-01-06 16:58:00,
2013-01-06 11:03:00,34.2,26.0,30.21,NNW,338,3.4,5.4,72,0.00,,,0.00,WUHU216HW,2013-01-06 17:03:00,
2013-01-06 11:08:00,34.6,26.4,30.21,NNW,336,2.9,4.0,72,0.00,,,0.00,WUHU216HW,2013-01-06 17:08:00,
2013-01-06 11:13:00,34.9,26.5,30.22,SW,232,2.8,6.3,71,0.00,,,0.00,WUHU216HW,2013-01-06 17:13:00,
2013-01-06 11:18:00,35.3,26.8,30.21,WNW,293,2.2,6.3,71,0.00,,,0.00,WUHU216HW,2013-01-06 17:18:00,
2013-01-06 11:23:00,35.6,27.2,30.21,North,0,3.6,3.6,71,0.00,,,0.00,WUHU216HW,2013-01-06 17:23:00,
2013-01-06 11:28:00,35.6,26.5,30.21,West,270,1.9,4.0,69,0.00,,,0.00,WUHU216HW,2013-01-06 17:28:00,
2013-01-06 11:33:00,35.8,26.3,30.21,NNW,343,4.5,5.6,68,0.00,,,0.00,WUHU216HW,2013-01-06 17:33:00,
2013-01-06 11:38:00,36.4,26.8,30.20,North,0,4.0,5.6,68,0.00,,,0.00,WUHU216HW,2013-01-06 17:38:00,
2013-01-06 11:43:00,36.4,26.5,30.20,NW,321,3.0,6.5,67,0.00,,,0.00,WUHU216HW,2013-01-06 17:43:00,
2013-01-06 11:48:00,36.4,26.8,30.20,East,90,4.0,6.5,68,0.00,,,0.00,WUHU216HW,2013-01-06 17:48:00,
2013-01-06 11:53:00,36.4,26.1,30.20,North,0,4.0,4.7,66,0.00,,,0.00,WUHU216HW,2013-01-06 17:53:00,
2013-01-06 11:58:00,36.4,25.8,30.20,NW,306,4.6,7.4,65,0.00,,,0.00,WUHU216HW,2013-01-06 17:58:00,
2013-01-06 12:03:00,36.5,26.3,30.20,WNW,293,3.4,7.4,66,0.00,,,0.00,WUHU216HW,2013-01-06 18:03:00,
2013-01-06 12:08:00,36.7,26.0,30.19,NNE,23,8.5,8.5,65,0.00,,,0.00,WUHU216HW,2013-01-06 18:08:00,
2013-01-06 12:13:00,36.7,26.0,30.19,North,356,3.3,8.5,65,0.00,,,0.00,WUHU216HW,2013-01-06 18:13:00,
2013-01-06 12:18:00,37.1,26.4,30.19,NNW,339,3.9,5.4,65,0.00,,,0.00,WUHU216HW,2013-01-06 18:18:00,
2013-01-06 12:23:00,37.4,26.4,30.19,NW,315,4.9,4.9,64,0.00,,,0.00,WUHU216HW,2013-01-06 18:23:00,
2013-01-06 12:28:00,37.6,25.7,30.19,NW,325,4.1,4.9,62,0.00,,,0.00,WUHU216HW,2013-01-06 18:28:00,
2013-01-06 12:33:00,37.4,26.0,30.19,NW,315,1.9,5.4,63,0.00,,,0.00,WUHU216HW,2013-01-06 18:33:00,
2013-01-06 12:38:00,37.8,26.3,30.19,North,0,4.3,5.4,63,0.00,,,0.00,WUHU216HW,2013-01-06 18:38:00,
2013-01-06 12:43:00,38.3,26.8,30.19,NW,315,6.3,6.3,63,0.00,,,0.00,WUHU216HW,2013-01-06 18:43:00,
2013-01-06 12:48:00,38.2,26.7,30.19,NW,315,3.5,6.3,63,0.00,,,0.00,WUHU216HW,2013-01-06 18:48:00,
2013-01-06 12:53:00,38.5,26.6,30.19,North,350,2.0,4.9,62,0.00,,,0.00,WUHU216HW,2013-01-06 18:53:00,
2013-01-06 12:58:00,38.7,26.7,30.19,North,0,3.8,4.7,62,0.00,,,0.00,WUHU216HW,2013-01-06 18:58:00,
2013-01-06 13:03:00,38.9,26.9,30.19,NW,315,2.2,4.7,62,0.00,,,0.00,WUHU216HW,2013-01-06 19:03:00,
2013-01-06 13:08:00,38.9,26.6,30.18,NW,315,2.7,7.6,61,0.00,,,0.00,WUHU216HW,2013-01-06 19:08:00,
2013-01-06 13:13:00,39.1,26.6,30.19,NW,312,4.3,7.6,61,0.00,,,0.00,WUHU216HW,2013-01-06 19:13:00,
2013-01-06 13:18:00,39.2,26.5,30.18,North,0,5.4,5.4,60,0.00,,,0.00,WUHU216HW,2013-01-06 19:18:00,
2013-01-06 13:23:00,39.8,26.6,30.18,NNE,23,5.4,5.4,59,0.00,,,0.00,WUHU216HW,2013-01-06 19:23:00,
2013-01-06 13:28:00,39.4,25.7,30.18,NW,315,4.5,8.3,58,0.00,,,0.00,WUHU216HW,2013-01-06 19:28:00,
2013-01-06 13:33:00,39.8,26.6,30.18,WNW,293,4.0,8.3,59,0.00,,,0.00,WUHU216HW,2013-01-06 19:33:00,
2013-01-06 13:38:00,39.8,25.7,30.18,North,0,7.2,7.2,57,0.00,,,0.00,WUHU216HW,2013-01-06 19:38:00,
2013-01-06 13:43:00,40.0,25.4,30.18,NE,45,4.5,7.2,56,0.00,,,0.00,WUHU216HW,2013-01-06 19:43:00,
2013-01-06 13:48:00,40.0,25.0,30.18,NW,314,2.6,4.9,55,0.00,,,0.00,WUHU216HW,2013-01-06 19:48:00,
2013-01-06 13:53:00,40.5,25.9,30.18,NW,315,1.5,4.9,56,0.00,,,0.00,WUHU216HW,2013-01-06 19:53:00,
2013-01-06 13:58:00,40.7,25.2,30.18,NW,311,2.2,3.6,54,0.00,,,0.00,WUHU216HW,2013-01-06 19:58:00,
2013-01-06 14:03:00,40.7,24.8,30.18,NNW,339,3.4,6.5,53,0.00,,,0.00,WUHU216HW,2013-01-06 20:03:00,
2013-01-06 14:09:00,40.5,25.5,30.18,NNE,13,4.6,6.5,55,0.00,,,0.00,WUHU216HW,2013-01-06 20:09:00,
2013-01-06 14:11:00,40.7,25.2,30.18,North,0,5.7,9.2,54,0.00,,,0.00,WUHU216HW,2013-01-06 20:11:00,
2013-01-06 14:13:00,40.7,25.2,30.18,North,0,5.7,9.2,54,0.00,,,0.00,WUHU216HW,2013-01-06 20:13:00,
2013-01-06 14:18:00,40.7,25.2,30.18,North,0,4.0,9.2,54,0.00,,,0.00,WUHU216HW,2013-01-06 20:18:00,
2013-01-06 14:23:00,40.7,25.2,30.18,North,0,3.1,5.6,54,0.00,,,0.00,WUHU216HW,2013-01-06 20:23:00,
2013-01-06 14:28:00,40.9,25.4,30.19,North,0,3.4,4.5,54,0.00,,,0.00,WUHU216HW,2013-01-06 20:28:00,
2013-01-06 14:33:00,40.9,24.5,30.18,NW,315,3.6,3.6,52,0.00,,,0.00,WUHU216HW,2013-01-06 20:33:00,
2013-01-06 14:38:00,40.9,24.5,30.19,NNW,338,5.4,5.4,52,0.00,,,0.00,WUHU216HW,2013-01-06 20:38:00,
2013-01-06 14:43:00,40.9,24.5,30.19,NNW,331,1.8,5.4,52,0.00,,,0.00,WUHU216HW,2013-01-06 20:43:00,
2013-01-06 14:49:00,41.0,23.2,30.19,WNW,293,3.1,5.6,49,0.00,,,0.00,WUHU216HW,2013-01-06 20:49:00,
2013-01-06 14:54:00,41.0,23.8,30.19,North,11,3.0,5.6,50,0.00,,,0.00,WUHU216HW,2013-01-06 20:54:00,
2013-01-06 14:59:00,41.0,24.2,30.19,North,0,4.7,4.7,51,0.00,,,0.00,WUHU216HW,2013-01-06 20:59:00,
2013-01-06 15:01:00,41.0,23.8,30.19,NNW,337,2.4,4.7,50,0.00,,,0.00,WUHU216HW,2013-01-06 21:01:00,
2013-01-06 15:06:00,40.7,23.9,30.19,West,270,1.3,5.4,51,0.00,,,0.00,WUHU216HW,2013-01-06 21:06:00,
2013-01-06 15:11:00,40.9,24.0,30.19,NNW,348,2.6,5.4,51,0.00,,,0.00,WUHU216HW,2013-01-06 21:11:00,
2013-01-06 15:16:00,41.0,24.2,30.19,North,0,2.5,3.4,51,0.00,,,0.00,WUHU216HW,2013-01-06 21:16:00,
2013-01-06 15:21:00,41.0,23.8,30.19,NNW,343,2.9,4.0,50,0.00,,,0.00,WUHU216HW,2013-01-06 21:21:00,
2013-01-06 15:26:00,41.0,24.2,30.19,NNE,23,2.4,4.5,51,0.00,,,0.00,WUHU216HW,2013-01-06 21:26:00,
2013-01-06 15:31:00,40.9,23.6,30.19,NW,311,1.4,4.5,50,0.00,,,0.00,WUHU216HW,2013-01-06 21:31:00,
2013-01-06 15:36:00,40.9,24.0,30.20,NNW,338,2.5,4.0,51,0.00,,,0.00,WUHU216HW,2013-01-06 21:36:00,
2013-01-06 15:41:00,40.7,23.9,30.20,North,0,1.4,4.0,51,0.00,,,0.00,WUHU216HW,2013-01-06 21:41:00,
2013-01-06 15:46:00,40.7,24.3,30.20,North,0,0.6,2.2,52,0.00,,,0.00,WUHU216HW,2013-01-06 21:46:00,
2013-01-06 15:51:00,40.7,24.3,30.20,NNE,23,3.4,3.4,52,0.00,,,0.00,WUHU216HW,2013-01-06 21:51:00,
2013-01-06 15:56:00,40.7,24.3,30.20,North,0,2.0,3.4,52,0.00,,,0.00,WUHU216HW,2013-01-06 21:56:00,
2013-01-06 16:01:00,40.7,23.9,30.20,NNW,338,1.1,2.7,51,0.00,,,0.00,WUHU216HW,2013-01-06 22:01:00,
2013-01-06 16:06:00,40.7,23.9,30.20,North,0,1.3,2.5,51,0.00,,,0.00,WUHU216HW,2013-01-06 22:06:00,
2013-01-06 16:11:00,40.5,23.8,30.20,North,0,1.4,2.5,51,0.00,,,0.00,WUHU216HW,2013-01-06 22:11:00,
2013-01-06 16:16:00,40.5,23.8,30.20,NNW,338,1.5,2.5,51,0.00,,,0.00,WUHU216HW,2013-01-06 22:16:00,
2013-01-06 16:21:00,40.5,23.8,30.20,NNW,338,1.3,3.4,51,0.00,,,0.00,WUHU216HW,2013-01-06 22:21:00,
2013-01-06 16:26:00,40.3,23.1,30.20,WNW,293,0.0,3.4,50,0.00,,,0.00,WUHU216HW,2013-01-06 22:26:00,
2013-01-06 16:31:00,40.3,23.6,30.20,NNW,347,0.6,0.9,51,0.00,,,0.00,WUHU216HW,2013-01-06 22:31:00,
2013-01-06 16:36:00,40.1,23.9,30.20,North,0,0.0,2.9,52,0.00,,,0.00,WUHU216HW,2013-01-06 22:36:00,
2013-01-06 16:41:00,40.0,23.2,30.20,NNW,337,0.6,2.9,51,0.00,,,0.00,WUHU216HW,2013-01-06 22:41:00,
2013-01-06 16:46:00,39.6,23.3,30.20,North,0,0.8,1.1,52,0.00,,,0.00,WUHU216HW,2013-01-06 22:46:00,
2013-01-06 16:51:00,39.2,23.4,30.20,NNE,23,1.1,1.1,53,0.00,,,0.00,WUHU216HW,2013-01-06 22:51:00,
2013-01-06 16:56:00,38.9,23.1,30.20,NNW,338,0.0,1.1,53,0.00,,,0.00,WUHU216HW,2013-01-06 22:56:00,
2013-01-06 17:01:00,38.3,23.0,30.20,North,0,0.0,1.1,54,0.00,,,0.00,WUHU216HW,2013-01-06 23:01:00,
2013-01-06 17:06:00,37.8,23.1,30.20,North,0,0.0,0.4,55,0.00,,,0.00,WUHU216HW,2013-01-06 23:06:00,
2013-01-06 17:11:00,37.3,22.5,30.20,North,0,0.0,0.0,55,0.00,,,0.00,WUHU216HW,2013-01-06 23:11:00,
2013-01-06 17:16:00,36.5,22.3,30.20,North,0,0.0,0.0,56,0.00,,,0.00,WUHU216HW,2013-01-06 23:16:00,
2013-01-06 17:21:00,36.0,21.8,30.20,North,0,0.0,0.0,56,0.00,,,0.00,WUHU216HW,2013-01-06 23:21:00,
2013-01-06 17:26:00,35.3,21.6,30.20,North,0,0.0,0.0,57,0.00,,,0.00,WUHU216HW,2013-01-06 23:26:00,
2013-01-06 17:31:00,34.7,21.1,30.20,North,0,0.0,0.0,57,0.00,,,0.00,WUHU216HW,2013-01-06 23:31:00,
2013-01-06 17:36:00,34.2,21.3,30.20,North,0,0.0,0.0,59,0.00,,,0.00,WUHU216HW,2013-01-06 23:36:00,
2013-01-06 17:41:00,34.0,21.2,30.20,North,0,0.0,0.0,59,0.00,,,0.00,WUHU216HW,2013-01-06 23:41:00,
2013-01-06 17:46:00,33.7,20.8,30.20,North,0,0.0,0.0,59,0.00,,,0.00,WUHU216HW,2013-01-06 23:46:00,
2013-01-06 17:51:00,33.5,21.1,30.20,North,0,0.0,0.0,60,0.00,,,0.00,WUHU216HW,2013-01-06 23:51:00,
2013-01-06 17:56:00,33.1,20.8,30.20,North,0,0.0,0.0,60,0.00,,,0.00,WUHU216HW,2013-01-06 23:56:00,
2013-01-06 18:01:00,32.8,20.8,30.20,North,0,0.0,0.0,61,0.00,,,0.00,WUHU216HW,2013-01-07 00:01:00,
2013-01-06 18:06:00,32.6,20.6,30.20,North,0,0.0,0.0,61,0.00,,,0.00,WUHU216HW,2013-01-07 00:06:00,
2013-01-06 18:11:00,32.0,20.2,30.20,North,0,0.0,0.0,61,0.00,,,0.00,WUHU216HW,2013-01-07 00:11:00,
2013-01-06 18:16:00,31.9,20.0,30.20,North,0,0.0,0.0,61,0.00,,,0.00,WUHU216HW,2013-01-07 00:16:00,
2013-01-06 18:21:00,31.5,20.0,30.20,North,0,0.0,0.0,62,0.00,,,0.00,WUHU216HW,2013-01-07 00:21:00,
2013-01-06 18:26:00,31.3,19.8,30.20,North,0,0.0,0.0,62,0.00,,,0.00,WUHU216HW,2013-01-07 00:26:00,
2013-01-06 18:31:00,31.0,19.4,30.20,North,0,0.0,0.0,62,0.00,,,0.00,WUHU216HW,2013-01-07 00:31:00,
2013-01-06 18:36:00,30.6,20.2,30.21,North,0,0.0,0.0,65,0.00,,,0.00,WUHU216HW,2013-01-07 00:36:00,
2013-01-06 18:41:00,30.6,19.8,30.21,North,0,0.0,0.0,64,0.00,,,0.00,WUHU216HW,2013-01-07 00:41:00,
2013-01-06 18:46:00,30.6,20.2,30.21,North,0,0.0,0.0,65,0.00,,,0.00,WUHU216HW,2013-01-07 00:46:00,
2013-01-06 18:51:00,30.6,20.5,30.21,North,0,0.0,0.0,66,0.00,,,0.00,WUHU216HW,2013-01-07 00:51:00,
2013-01-06 18:56:00,30.6,20.2,30.21,North,0,0.0,0.0,65,0.00,,,0.00,WUHU216HW,2013-01-07 00:56:00,
2013-01-06 19:01:00,30.4,20.0,30.21,North,0,0.0,0.0,65,0.00,,,0.00,WUHU216HW,2013-01-07 01:01:00,
2013-01-06 19:06:00,30.2,19.8,30.22,North,0,0.0,0.2,65,0.00,,,0.00,WUHU216HW,2013-01-07 01:06:00,
2013-01-06 19:11:00,29.9,20.2,30.22,North,0,0.0,0.2,67,0.00,,,0.00,WUHU216HW,2013-01-07 01:11:00,
2013-01-06 19:16:00,29.7,20.8,30.22,North,0,0.0,0.0,69,0.00,,,0.00,WUHU216HW,2013-01-07 01:16:00,
2013-01-06 19:21:00,29.7,20.1,30.21,North,0,0.0,0.0,67,0.00,,,0.00,WUHU216HW,2013-01-07 01:21:00,
2013-01-06 19:26:00,29.5,20.3,30.21,North,0,0.0,0.0,68,0.00,,,0.00,WUHU216HW,2013-01-07 01:26:00,
2013-01-06 19:31:00,29.3,19.7,30.21,North,0,0.0,0.0,67,0.00,,,0.00,WUHU216HW,2013-01-07 01:31:00,
2013-01-06 19:37:00,29.2,19.9,30.21,North,0,0.0,0.0,68,0.00,,,0.00,WUHU216HW,2013-01-07 01:37:00,
2013-01-06 19:42:00,29.2,20.3,30.21,North,0,0.0,0.0,69,0.00,,,0.00,WUHU216HW,2013-01-07 01:42:00,
2013-01-06 19:46:00,29.2,20.3,30.21,North,0,0.0,0.0,69,0.00,,,0.00,WUHU216HW,2013-01-07 01:46:00,
2013-01-06 19:51:00,29.0,20.1,30.22,North,0,0.0,0.0,69,0.00,,,0.00,WUHU216HW,2013-01-07 01:51:00,
2013-01-06 19:56:00,29.0,20.1,30.22,North,0,0.0,0.0,69,0.00,,,0.00,WUHU216HW,2013-01-07 01:56:00,
2013-01-06 20:01:00,28.8,19.6,30.22,North,0,0.0,0.0,68,0.00,,,0.00,WUHU216HW,2013-01-07 02:01:00,
2013-01-06 20:06:00,28.4,19.6,30.22,North,0,0.0,0.0,69,0.00,,,0.00,WUHU216HW,2013-01-07 02:06:00,
2013-01-06 20:11:00,28.4,19.3,30.22,North,0,0.0,0.0,68,0.00,,,0.00,WUHU216HW,2013-01-07 02:11:00,
2013-01-06 20:16:00,28.3,19.1,30.22,North,0,0.0,0.0,68,0.00,,,0.00,WUHU216HW,2013-01-07 02:16:00,
2013-01-06 20:21:00,27.9,19.1,30.22,North,0,0.0,0.0,69,0.00,,,0.00,WUHU216HW,2013-01-07 02:21:00,
2013-01-06 20:26:00,27.7,18.9,30.23,North,0,0.0,0.0,69,0.00,,,0.00,WUHU216HW,2013-01-07 02:26:00,
2013-01-06 20:31:00,27.4,18.5,30.22,North,0,0.0,0.0,69,0.00,,,0.00,WUHU216HW,2013-01-07 02:31:00,
2013-01-06 20:37:00,27.2,18.7,30.23,North,0,0.0,0.0,70,0.00,,,0.00,WUHU216HW,2013-01-07 02:37:00,
2013-01-06 20:42:00,27.2,20.0,30.22,North,0,0.0,0.0,74,0.00,,,0.00,WUHU216HW,2013-01-07 02:42:00,
2013-01-06 20:47:00,27.2,20.3,30.22,North,0,0.0,0.0,75,0.00,,,0.00,WUHU216HW,2013-01-07 02:47:00,
2013-01-06 20:52:00,27.4,20.4,30.22,ENE,68,0.1,0.4,75,0.00,,,0.00,WUHU216HW,2013-01-07 02:52:00,
2013-01-06 20:57:00,27.7,20.8,30.22,East,90,0.0,0.4,75,0.00,,,0.00,WUHU216HW,2013-01-07 02:57:00,
2013-01-06 21:02:00,27.7,20.8,30.22,East,90,0.3,0.4,75,0.00,,,0.00,WUHU216HW,2013-01-07 03:02:00,
2013-01-06 21:07:00,27.7,20.8,30.22,East,90,0.0,0.4,75,0.00,,,0.00,WUHU216HW,2013-01-07 03:07:00,
2013-01-06 21:12:00,27.5,20.6,30.22,East,90,0.0,0.0,75,0.00,,,0.00,WUHU216HW,2013-01-07 03:12:00,
2013-01-06 21:17:00,27.5,20.9,30.21,East,90,0.0,0.0,76,0.00,,,0.00,WUHU216HW,2013-01-07 03:17:00,
2013-01-06 21:22:00,27.5,20.9,30.22,East,90,0.3,0.4,76,0.00,,,0.00,WUHU216HW,2013-01-07 03:22:00,
2013-01-06 21:27:00,27.4,20.2,30.21,East,90,0.0,0.4,74,0.00,,,0.00,WUHU216HW,2013-01-07 03:27:00,
2013-01-06 21:32:00,27.7,21.1,30.22,East,90,0.0,0.2,76,0.00,,,0.00,WUHU216HW,2013-01-07 03:32:00,
2013-01-06 21:37:00,27.7,20.8,30.21,East,90,0.0,0.2,75,0.00,,,0.00,WUHU216HW,2013-01-07 03:37:00,
2013-01-06 21:42:00,27.7,20.5,30.21,East,90,0.0,0.0,74,0.00,,,0.00,WUHU216HW,2013-01-07 03:42:00,
2013-01-06 21:47:00,27.4,19.5,30.22,East,90,0.0,0.0,72,0.00,,,0.00,WUHU216HW,2013-01-07 03:47:00,
2013-01-06 21:52:00,27.0,19.2,30.22,East,90,0.0,0.0,72,0.00,,,0.00,WUHU216HW,2013-01-07 03:52:00,
2013-01-06 21:57:00,26.8,19.6,30.22,East,90,0.0,0.0,74,0.00,,,0.00,WUHU216HW,2013-01-07 03:57:00,
2013-01-06 22:02:00,26.6,19.7,30.22,East,90,0.0,0.0,75,0.00,,,0.00,WUHU216HW,2013-01-07 04:02:00,
2013-01-06 22:12:00,26.6,19.7,30.21,East,90,0.0,0.0,75,0.00,,,0.00,WUHU216HW,2013-01-07 04:12:00,
2013-01-06 22:17:00,26.3,19.4,30.21,East,90,0.0,0.0,75,0.00,,,0.00,WUHU216HW,2013-01-07 04:17:00,
2013-01-06 22:22:00,26.1,19.2,30.22,East,90,0.0,0.0,75,0.00,,,0.00,WUHU216HW,2013-01-07 04:22:00,
2013-01-06 22:27:00,25.7,18.8,30.22,East,90,0.0,0.0,75,0.00,,,0.00,WUHU216HW,2013-01-07 04:27:00,
2013-01-06 22:32:00,25.6,19.0,30.21,East,90,0.0,0.0,76,0.00,,,0.00,WUHU216HW,2013-01-07 04:32:00,
2013-01-06 22:35:00,25.6,18.7,30.21,East,90,0.0,0.0,75,0.00,,,0.00,WUHU216HW,2013-01-07 04:35:00,
2013-01-06 22:36:00,25.6,18.7,30.21,East,90,0.0,0.0,75,0.00,,,0.00,WUHU216HW,2013-01-07 04:36:00,
2013-01-06 22:46:00,25.4,18.8,30.21,East,90,0.0,0.0,76,0.00,,,0.00,WUHU216HW,2013-01-07 04:46:00,
2013-01-06 22:51:00,25.2,19.0,30.21,East,90,0.0,0.0,77,0.00,,,0.00,WUHU216HW,2013-01-07 04:51:00,
2013-01-06 22:56:00,25.2,19.3,30.21,East,90,0.0,0.0,78,0.00,,,0.00,WUHU216HW,2013-01-07 04:56:00,
2013-01-06 23:00:00,25.0,18.8,30.21,East,90,0.0,0.0,77,0.00,,,0.00,WUHU216HW,2013-01-07 05:00:00,
2013-01-06 23:01:00,25.0,18.5,30.21,East,90,0.0,0.0,76,0.00,,,0.00,WUHU216HW,2013-01-07 05:01:00,
2013-01-06 23:06:00,24.8,18.0,30.21,East,90,0.0,0.0,75,0.00,,,0.00,WUHU216HW,2013-01-07 05:06:00,
2013-01-06 23:11:00,24.7,18.2,30.21,East,90,0.0,0.0,76,0.00,,,0.00,WUHU216HW,2013-01-07 05:11:00,
2013-01-06 23:16:00,24.5,17.6,30.21,East,90,0.0,0.0,75,0.00,,,0.00,WUHU216HW,2013-01-07 05:16:00,
2013-01-06 23:21:00,24.3,17.5,30.22,East,90,0.0,0.0,75,0.00,,,0.00,WUHU216HW,2013-01-07 05:21:00,
2013-01-06 23:26:00,24.1,17.3,30.22,East,90,0.0,0.0,75,0.00,,,0.00,WUHU216HW,2013-01-07 05:26:00,
2013-01-06 23:31:00,23.9,17.5,30.22,East,90,0.0,0.0,76,0.00,,,0.00,WUHU216HW,2013-01-07 05:31:00,
2013-01-06 23:37:00,23.2,17.1,30.22,East,90,0.0,0.0,77,0.00,,,0.00,WUHU216HW,2013-01-07 05:37:00,
2013-01-06 23:42:00,22.7,16.2,30.22,East,90,0.0,0.0,76,0.00,,,0.00,WUHU216HW,2013-01-07 05:42:00,
2013-01-06 23:47:00,22.7,16.2,30.22,East,90,0.0,0.0,76,0.00,,,0.00,WUHU216HW,2013-01-07 05:47:00,
2013-01-06 23:52:00,22.5,17.0,30.22,East,90,0.0,0.0,79,0.00,,,0.00,WUHU216HW,2013-01-07 05:52:00,
2013-01-06 23:57:00,22.7,17.2,30.21,East,90,0.0,0.2,79,0.00,,,0.00,WUHU216HW,2013-01-07 05:57:00,